DLH3WR EDDM-LYTV

Flight info

Callsign DLH3WR
Flight time 1h 21m
Altitude 33000
Route VAVOR3E/08R VAVOR M867 RADIZ DCT GIMIX/N0441F390 DCT SABAD DCT NERRA DCT DBK DCT TAZ
Aircraft A319/M-SDE3FGHIRWY/LB1

Departure

Time 2026-05-01 12:22
Airport Munich Airport (EDDM)

Arrival

Time 2026-05-01 13:43
Airport Tivat Airport (LYTV)
Time Latitude Longitude Altitude Speed Heading
2026-05-01 11:31 48.35587 11.79990 1469 ft 0 kts 263°
2026-05-01 11:53 48.35588 11.80007 1469 ft 2 kts 263°
2026-05-01 11:54 48.35589 11.80029 1469 ft 2 kts 263°
2026-05-01 11:54 48.35590 11.80044 1469 ft 2 kts 257°
2026-05-01 11:54 48.35598 11.80063 1469 ft 2 kts 222°
2026-05-01 11:54 48.35611 11.80074 1469 ft 2 kts 193°
2026-05-01 11:55 48.35620 11.80076 1469 ft 1 kts 175°
2026-05-01 11:55 48.35626 11.80074 1469 ft 0 kts 173°
2026-05-01 12:04 48.35622 11.80075 1469 ft 1 kts 173°
2026-05-01 12:05 48.35601 11.80079 1469 ft 4 kts 173°
2026-05-01 12:05 48.35482 11.80099 1470 ft 11 kts 174°
2026-05-01 12:05 48.35401 11.80114 1471 ft 12 kts 170°
2026-05-01 12:06 48.35316 11.80134 1471 ft 12 kts 173°
2026-05-01 12:06 48.35228 11.80151 1472 ft 13 kts 173°
2026-05-01 12:06 48.35159 11.80097 1472 ft 13 kts 262°
2026-05-01 12:06 48.35148 11.79957 1472 ft 13 kts 264°
2026-05-01 12:07 48.35138 11.79809 1473 ft 14 kts 264°
2026-05-01 12:07 48.35130 11.79690 1473 ft 10 kts 264°
2026-05-01 12:07 48.35123 11.79600 1474 ft 7 kts 264°
2026-05-01 12:07 48.35108 11.79529 1474 ft 3 kts 225°
2026-05-01 12:08 48.35104 11.79524 1474 ft 0 kts 213°
2026-05-01 12:09 48.35100 11.79521 1474 ft 1 kts 208°
2026-05-01 12:09 48.35066 11.79522 1474 ft 7 kts 173°
2026-05-01 12:09 48.35011 11.79531 1474 ft 8 kts 174°
2026-05-01 12:09 48.34968 11.79538 1475 ft 0 kts 174°
2026-05-01 12:10 48.34953 11.79541 1475 ft 2 kts 174°
2026-05-01 12:10 48.34934 11.79544 1475 ft 3 kts 174°
2026-05-01 12:11 48.34875 11.79554 1475 ft 5 kts 173°
2026-05-01 12:11 48.34831 11.79555 1475 ft 7 kts 188°
2026-05-01 12:11 48.34786 11.79508 1475 ft 9 kts 258°
2026-05-01 12:12 48.34779 11.79398 1476 ft 11 kts 264°
2026-05-01 12:12 48.34767 11.79249 1477 ft 19 kts 263°
2026-05-01 12:12 48.34748 11.79024 1477 ft 22 kts 262°
2026-05-01 12:12 48.34733 11.78791 1478 ft 22 kts 265°
2026-05-01 12:13 48.34715 11.78561 1479 ft 21 kts 263°
2026-05-01 12:13 48.34698 11.78340 1480 ft 21 kts 263°
2026-05-01 12:13 48.34680 11.78122 1481 ft 20 kts 264°
2026-05-01 12:13 48.34664 11.77917 1481 ft 17 kts 262°
2026-05-01 12:14 48.34650 11.77761 1481 ft 14 kts 263°
2026-05-01 12:14 48.34638 11.77605 1482 ft 15 kts 263°
2026-05-01 12:14 48.34625 11.77447 1482 ft 15 kts 263°
2026-05-01 12:14 48.34613 11.77286 1483 ft 15 kts 264°
2026-05-01 12:15 48.34602 11.77124 1483 ft 15 kts 264°
2026-05-01 12:15 48.34591 11.76956 1483 ft 16 kts 263°
2026-05-01 12:15 48.34577 11.76785 1484 ft 16 kts 263°
2026-05-01 12:15 48.34564 11.76614 1484 ft 16 kts 263°
2026-05-01 12:16 48.34551 11.76439 1484 ft 16 kts 264°
2026-05-01 12:16 48.34539 11.76267 1485 ft 16 kts 264°
2026-05-01 12:16 48.34523 11.76089 1485 ft 16 kts 263°
2026-05-01 12:16 48.34509 11.75913 1486 ft 17 kts 263°
2026-05-01 12:17 48.34495 11.75735 1486 ft 17 kts 263°
2026-05-01 12:17 48.34481 11.75553 1487 ft 18 kts 264°
2026-05-01 12:17 48.34466 11.75343 1487 ft 22 kts 264°
2026-05-01 12:17 48.34445 11.75112 1488 ft 15 kts 248°
2026-05-01 12:18 48.34352 11.75072 1488 ft 15 kts 174°
2026-05-01 12:18 48.34255 11.75091 1489 ft 10 kts 172°
2026-05-01 12:18 48.34202 11.75100 1489 ft 5 kts 178°
2026-05-01 12:18 48.34190 11.75102 1489 ft 1 kts 172°
2026-05-01 12:19 48.34180 11.75106 1489 ft 0 kts 164°
2026-05-01 12:19 48.34171 11.75109 1489 ft 2 kts 164°
2026-05-01 12:20 48.34129 11.75146 1489 ft 11 kts 142°
2026-05-01 12:20 48.34078 11.75234 1489 ft 4 kts 92°
2026-05-01 12:20 48.34078 11.75238 1489 ft 0 kts 83°
2026-05-01 12:21 48.34084 11.75324 1489 ft 31 kts 84°
2026-05-01 12:21 48.34161 11.76310 1487 ft 123 kts 84°
2026-05-01 12:21 48.34275 11.77870 1745 ft 161 kts 84°
2026-05-01 12:22 48.34376 11.79522 2511 ft 160 kts 84°
2026-05-01 12:22 48.34493 11.81116 3394 ft 157 kts 83°
2026-05-01 12:22 48.34627 11.82815 4016 ft 171 kts 84°
2026-05-01 12:22 48.34761 11.84516 4528 ft 186 kts 84°
2026-05-01 12:23 48.34921 11.86598 5093 ft 205 kts 84°
2026-05-01 12:23 48.35092 11.88871 5611 ft 228 kts 84°
2026-05-01 12:23 48.35272 11.91258 6418 ft 237 kts 84°
2026-05-01 12:23 48.35387 11.93708 7349 ft 241 kts 95°
2026-05-01 12:24 48.34850 11.96104 8245 ft 248 kts 122°
2026-05-01 12:24 48.33633 11.97949 9121 ft 256 kts 139°
2026-05-01 12:24 48.32226 11.99581 10002 ft 261 kts 140°
2026-05-01 12:24 48.30780 12.01220 10876 ft 266 kts 142°
2026-05-01 12:25 48.29109 12.02490 11736 ft 275 kts 162°
2026-05-01 12:25 48.25103 12.02722 12927 ft 308 kts 181°
2026-05-01 12:25 48.22946 12.02521 13660 ft 316 kts 181°
2026-05-01 12:26 48.20750 12.02336 14477 ft 321 kts 181°
2026-05-01 12:26 48.16253 12.02064 16068 ft 328 kts 175°
2026-05-01 12:26 48.14017 12.02470 16832 ft 328 kts 163°
2026-05-01 12:27 48.11847 12.03557 17610 ft 328 kts 154°
2026-05-01 12:27 48.07671 12.06303 19071 ft 334 kts 152°
2026-05-01 12:28 48.03382 12.09124 20441 ft 342 kts 152°
2026-05-01 12:28 48.01183 12.10541 21112 ft 346 kts 152°
2026-05-01 12:28 47.96730 12.13389 22447 ft 352 kts 152°
2026-05-01 12:29 47.94536 12.14924 22956 ft 357 kts 147°
2026-05-01 12:29 47.92379 12.16900 23206 ft 369 kts 140°
2026-05-01 12:29 47.88320 12.21827 23937 ft 385 kts 135°
2026-05-01 12:30 47.84179 12.27049 25012 ft 393 kts 135°
2026-05-01 12:30 47.82115 12.29641 25498 ft 396 kts 135°
2026-05-01 12:30 47.80003 12.32294 25989 ft 400 kts 135°
2026-05-01 12:31 47.77848 12.34996 26476 ft 403 kts 135°
2026-05-01 12:31 47.75721 12.37657 26940 ft 407 kts 135°
2026-05-01 12:31 47.73558 12.40355 27416 ft 409 kts 135°
2026-05-01 12:31 47.71365 12.43085 28019 ft 408 kts 135°
2026-05-01 12:32 47.69216 12.45744 28662 ft 405 kts 135°
2026-05-01 12:32 47.64885 12.51083 29765 ft 404 kts 135°
2026-05-01 12:32 47.62729 12.53706 30267 ft 405 kts 136°
2026-05-01 12:33 47.60490 12.56199 30767 ft 406 kts 138°
2026-05-01 12:33 47.58221 12.58669 31274 ft 406 kts 138°
2026-05-01 12:33 47.55952 12.61134 31762 ft 405 kts 138°
2026-05-01 12:33 47.53673 12.63610 32209 ft 406 kts 138°
2026-05-01 12:34 47.51421 12.66059 32625 ft 407 kts 139°
2026-05-01 12:34 47.49141 12.68550 33001 ft 408 kts 139°
2026-05-01 12:34 47.46852 12.71048 33309 ft 411 kts 139°
2026-05-01 12:34 47.44560 12.73545 33360 ft 412 kts 139°
2026-05-01 12:35 47.39964 12.78522 33371 ft 412 kts 139°
2026-05-01 12:35 47.35333 12.83530 33373 ft 411 kts 139°
2026-05-01 12:36 47.30715 12.88513 33373 ft 411 kts 139°
2026-05-01 12:36 47.26103 12.93477 33373 ft 411 kts 139°
2026-05-01 12:37 47.21497 12.98419 33373 ft 412 kts 138°
2026-05-01 12:37 47.16871 13.03378 33373 ft 412 kts 138°
2026-05-01 12:38 47.12265 13.08304 33373 ft 412 kts 138°
2026-05-01 12:38 47.07635 13.13244 33373 ft 412 kts 138°
2026-05-01 12:39 47.02987 13.18190 33373 ft 412 kts 138°
2026-05-01 12:39 46.98378 13.23086 33373 ft 411 kts 138°
2026-05-01 12:40 46.93723 13.28013 33375 ft 412 kts 138°
2026-05-01 12:40 46.89331 13.32659 33382 ft 412 kts 138°
2026-05-01 12:41 46.84546 13.37679 33390 ft 412 kts 138°
2026-05-01 12:41 46.79894 13.42560 33395 ft 412 kts 138°
2026-05-01 12:42 46.75155 13.47542 33398 ft 427 kts 138°
2026-05-01 12:42 46.72747 13.50071 33398 ft 438 kts 138°
2026-05-01 12:42 46.70243 13.52696 33397 ft 445 kts 138°
2026-05-01 12:43 46.65207 13.57954 33397 ft 447 kts 138°
2026-05-01 12:43 46.60159 13.63221 33397 ft 447 kts 138°
2026-05-01 12:44 46.55136 13.68465 33398 ft 448 kts 139°
2026-05-01 12:45 46.45228 13.79301 33398 ft 445 kts 136°
2026-05-01 12:45 46.40335 13.84752 33398 ft 445 kts 136°
2026-05-01 12:46 46.35436 13.90202 33442 ft 449 kts 136°
2026-05-01 12:46 46.32944 13.92970 33723 ft 452 kts 136°
2026-05-01 12:46 46.30415 13.95772 34146 ft 450 kts 136°
2026-05-01 12:47 46.27926 13.98525 34559 ft 449 kts 136°
2026-05-01 12:47 46.25452 14.01259 34929 ft 449 kts 136°
2026-05-01 12:47 46.22960 14.04006 35258 ft 449 kts 136°
2026-05-01 12:47 46.20468 14.06753 35363 ft 452 kts 136°
2026-05-01 12:48 46.15498 14.12227 35373 ft 452 kts 136°
2026-05-01 12:48 46.10458 14.17762 35375 ft 452 kts 136°
2026-05-01 12:49 46.05483 14.23210 35375 ft 452 kts 136°
2026-05-01 12:49 46.00476 14.28670 35376 ft 451 kts 135°
2026-05-01 12:50 45.95481 14.34118 35376 ft 450 kts 135°
2026-05-01 12:50 45.90407 14.39642 35376 ft 450 kts 135°
2026-05-01 12:51 45.85408 14.45042 35374 ft 450 kts 135°
2026-05-01 12:52 45.77921 14.53113 35375 ft 450 kts 135°
2026-05-01 12:52 45.70429 14.61185 35367 ft 448 kts 135°
2026-05-01 12:53 45.63011 14.69182 35352 ft 448 kts 136°
2026-05-01 12:54 45.58053 14.74520 35348 ft 448 kts 136°
2026-05-01 12:54 45.50596 14.82498 35347 ft 448 kts 136°
2026-05-01 12:55 45.43062 14.90615 35347 ft 447 kts 135°
2026-05-01 12:56 45.37852 14.96369 35347 ft 446 kts 135°
2026-05-01 12:56 45.32674 15.02074 35347 ft 447 kts 135°
2026-05-01 12:57 45.27456 15.07805 35347 ft 447 kts 135°
2026-05-01 12:57 45.19627 15.16377 35347 ft 448 kts 135°
2026-05-01 12:58 45.14409 15.22066 35347 ft 448 kts 135°
2026-05-01 12:59 45.06584 15.30579 35347 ft 449 kts 135°
2026-05-01 12:59 44.98768 15.39045 35347 ft 449 kts 135°
2026-05-01 13:00 44.90977 15.47462 35348 ft 455 kts 135°
2026-05-01 13:01 44.83282 15.55697 35346 ft 455 kts 135°
2026-05-01 13:02 44.75353 15.64173 35332 ft 455 kts 135°
2026-05-01 13:07 44.19075 16.23740 35321 ft 464 kts 137°
2026-05-01 13:08 44.14064 16.28965 35321 ft 464 kts 138°
2026-05-01 13:08 44.08908 16.34320 35305 ft 463 kts 138°
2026-05-01 13:09 44.04258 16.39145 35287 ft 463 kts 138°
2026-05-01 13:09 43.98751 16.44850 35276 ft 463 kts 138°
2026-05-01 13:10 43.93593 16.50182 35270 ft 464 kts 138°
2026-05-01 13:10 43.88449 16.55482 35266 ft 464 kts 138°
2026-05-01 13:11 43.83266 16.60782 35266 ft 464 kts 138°
2026-05-01 13:11 43.78384 16.65781 35267 ft 464 kts 139°
2026-05-01 13:12 43.73126 16.71196 35263 ft 466 kts 139°
2026-05-01 13:12 43.67931 16.76539 35264 ft 470 kts 140°
2026-05-01 13:13 43.62660 16.81928 35266 ft 471 kts 141°
2026-05-01 13:13 43.57396 16.87276 34918 ft 471 kts 141°
2026-05-01 13:13 43.54755 16.89953 34668 ft 471 kts 140°
2026-05-01 13:14 43.52159 16.92586 34422 ft 470 kts 140°
2026-05-01 13:14 43.49515 16.95265 34171 ft 470 kts 140°
2026-05-01 13:14 43.46892 16.97922 33922 ft 469 kts 140°
2026-05-01 13:14 43.44255 17.00589 33671 ft 469 kts 140°
2026-05-01 13:15 43.41653 17.03220 33423 ft 468 kts 140°
2026-05-01 13:15 43.39145 17.05753 33184 ft 468 kts 140°
2026-05-01 13:15 43.36553 17.08368 32937 ft 467 kts 140°
2026-05-01 13:15 43.33937 17.11004 32687 ft 467 kts 140°
2026-05-01 13:16 43.31728 17.13228 32476 ft 466 kts 140°
2026-05-01 13:16 43.28936 17.16037 32209 ft 466 kts 140°
2026-05-01 13:16 43.26339 17.18647 31960 ft 465 kts 140°
2026-05-01 13:17 43.18648 17.26366 31395 ft 466 kts 140°
2026-05-01 13:17 43.16058 17.28960 31270 ft 465 kts 140°
2026-05-01 13:18 43.10780 17.34226 31009 ft 465 kts 140°
2026-05-01 13:18 43.08466 17.36532 30826 ft 464 kts 140°
2026-05-01 13:18 43.05745 17.39243 30538 ft 464 kts 140°
2026-05-01 13:18 43.03146 17.41831 30258 ft 464 kts 140°
2026-05-01 13:19 43.01005 17.43961 29674 ft 464 kts 140°
2026-05-01 13:19 42.98375 17.46577 28920 ft 461 kts 140°
2026-05-01 13:19 42.92968 17.51971 27449 ft 463 kts 138°
2026-05-01 13:20 42.90632 17.54868 26752 ft 460 kts 130°
2026-05-01 13:20 42.88646 17.58220 26054 ft 458 kts 122°
2026-05-01 13:20 42.86892 17.61818 25358 ft 459 kts 120°
2026-05-01 13:21 42.83802 17.68469 24083 ft 460 kts 120°
2026-05-01 13:21 42.81907 17.72564 23371 ft 458 kts 120°
2026-05-01 13:21 42.80207 17.76205 23201 ft 447 kts 120°
2026-05-01 13:21 42.79047 17.78680 23097 ft 441 kts 120°
2026-05-01 13:22 42.76999 17.83030 22910 ft 433 kts 120°
2026-05-01 13:22 42.75398 17.86423 22762 ft 428 kts 120°
2026-05-01 13:22 42.73803 17.89801 22614 ft 423 kts 121°
2026-05-01 13:22 42.72219 17.93151 22457 ft 420 kts 121°
2026-05-01 13:23 42.70614 17.96539 21858 ft 428 kts 121°
2026-05-01 13:23 42.69004 17.99932 21208 ft 434 kts 121°
2026-05-01 13:23 42.67354 18.03406 20550 ft 439 kts 121°
2026-05-01 13:23 42.65725 18.06827 19890 ft 414 kts 121°
2026-05-01 13:24 42.64207 18.10006 19238 ft 387 kts 121°
2026-05-01 13:24 42.62806 18.12944 18598 ft 367 kts 120°
2026-05-01 13:24 42.61645 18.15382 18047 ft 361 kts 120°
2026-05-01 13:25 42.58825 18.21293 16679 ft 352 kts 120°
2026-05-01 13:25 42.57493 18.24077 16024 ft 348 kts 120°
2026-05-01 13:25 42.56165 18.26752 15379 ft 345 kts 122°
2026-05-01 13:25 42.55074 18.28854 14861 ft 342 kts 122°
2026-05-01 13:26 42.53499 18.31869 14109 ft 338 kts 122°
2026-05-01 13:26 42.52399 18.33974 13579 ft 335 kts 122°
2026-05-01 13:26 42.50869 18.36904 12834 ft 331 kts 122°
2026-05-01 13:26 42.49792 18.38966 12302 ft 327 kts 122°
2026-05-01 13:27 42.48373 18.41684 11594 ft 323 kts 122°
2026-05-01 13:27 42.47042 18.44231 10920 ft 317 kts 123°
2026-05-01 13:27 42.44530 18.49031 9636 ft 308 kts 123°
2026-05-01 13:28 42.42069 18.53720 9179 ft 307 kts 123°
2026-05-01 13:28 42.40821 18.56094 9172 ft 307 kts 123°
2026-05-01 13:29 42.38390 18.60715 9166 ft 283 kts 123°
2026-05-01 13:29 42.36186 18.64903 9168 ft 272 kts 123°
2026-05-01 13:30 42.31810 18.73245 9168 ft 272 kts 123°
2026-05-01 13:31 42.29623 18.77369 9169 ft 270 kts 122°
2026-05-01 13:31 42.26348 18.83532 9167 ft 268 kts 120°
2026-05-01 13:32 42.25137 18.87435 8867 ft 256 kts 106°
2026-05-01 13:33 42.23031 18.94250 7498 ft 232 kts 112°
2026-05-01 13:33 42.21655 18.97919 6686 ft 220 kts 125°
2026-05-01 13:34 42.18884 18.99321 5982 ft 229 kts 192°
2026-05-01 13:34 42.16318 18.96847 5498 ft 230 kts 225°
2026-05-01 13:35 42.14983 18.93336 5000 ft 224 kts 276°
2026-05-01 13:35 42.15243 18.91280 4795 ft 221 kts 285°
2026-05-01 13:35 42.16042 18.87263 4315 ft 220 kts 301°
2026-05-01 13:36 42.17067 18.85809 4053 ft 215 kts 334°
2026-05-01 13:36 42.18432 18.85033 3837 ft 215 kts 342°
2026-05-01 13:36 42.21201 18.83696 3477 ft 198 kts 342°
2026-05-01 13:37 42.22426 18.83085 3457 ft 191 kts 342°
2026-05-01 13:37 42.23601 18.82487 3497 ft 175 kts 342°
2026-05-01 13:37 42.24721 18.81914 3364 ft 171 kts 342°
2026-05-01 13:37 42.25712 18.81403 3252 ft 170 kts 343°
2026-05-01 13:38 42.28054 18.80133 2748 ft 158 kts 344°
2026-05-01 13:38 42.28751 18.79747 2527 ft 161 kts 343°
2026-05-01 13:39 42.30844 18.78707 1920 ft 161 kts 349°
2026-05-01 13:39 42.31799 18.78299 1813 ft 151 kts 350°
2026-05-01 13:39 42.32716 18.77844 1639 ft 149 kts 348°
2026-05-01 13:39 42.33620 18.77423 1374 ft 139 kts 351°
2026-05-01 13:40 42.34557 18.76952 1204 ft 129 kts 350°
2026-05-01 13:40 42.35049 18.76727 1137 ft 124 kts 350°
2026-05-01 13:40 42.35795 18.76375 1028 ft 126 kts 348°
2026-05-01 13:40 42.36440 18.76074 740 ft 130 kts 345°
2026-05-01 13:41 42.37627 18.75271 568 ft 134 kts 334°
2026-05-01 13:41 42.38095 18.74878 486 ft 134 kts 332°
2026-05-01 13:41 42.38648 18.74381 381 ft 135 kts 331°
2026-05-01 13:42 42.39294 18.73692 162 ft 136 kts 324°
2026-05-01 13:42 42.39673 18.73251 76 ft 135 kts 325°
2026-05-01 13:42 42.40445 18.72356 28 ft 114 kts 321°
2026-05-01 13:42 42.40800 18.71940 28 ft 61 kts 309°
2026-05-01 13:43 42.40911 18.71804 28 ft 20 kts 326°
2026-05-01 13:43 42.40982 18.71831 28 ft 0 kts 48°
2026-05-01 13:43 42.40988 18.71840 28 ft 5 kts 48°
2026-05-01 13:43 42.41031 18.71847 28 ft 7 kts 326°
2026-05-01 13:44 42.41092 18.71780 28 ft 9 kts 320°
2026-05-01 13:44 42.41139 18.71719 28 ft 6 kts 315°
2026-05-01 13:44 42.41166 18.71717 28 ft 2 kts 28°
2026-05-01 13:44 42.41181 18.71739 28 ft 0 kts 73°
2026-05-01 13:45 42.41175 18.71747 28 ft 1 kts 149°
2026-05-01 13:45 42.41165 18.71750 28 ft 0 kts 176°